Regional Weather Roundup
Issued by NWS Raleigh/Durham, NC

Home | Current Version | Previous Version | Text Only | Print | Product List | Glossary On
Versions: 1 2 3 4 5 6 7 8 9 10 11 12 13 14 15 16 17 18 19 20 21 22 23 24 25 26 27 28 29 30 31 32 33 34 35 36 37 38 39 40 41 42 43 44 45 46 47 48 49 50
000
ASUS42 KRAH 192110
RWRRAH
NORTH CAROLINA WEATHER ROUNDUP
NATIONAL WEATHER SERVICE RALEIGH NC
500 PM EDT THU APR 19 2018

NOTE: "FAIR" INDICATES FEW OR NO CLOUDS BELOW 12,000 FEET WITH NO
SIGNIFICANT WEATHER AND/OR OBSTRUCTIONS TO VISIBILITY.

NCZ001-053-055-056-065-067-192200-
WESTERN NORTH CAROLINA

CITY           SKY/WX    TMP DP  RH WIND       PRES   REMARKS
ASHEVILLE      FAIR      52  29  41 N21G28    30.11S
JEFFERSON      FAIR      41  26  55 NW16G29   30.08R
MORGANTON      FAIR      59  28  31 W15       30.12R
HICKORY        FAIR      56  29  35 VRB7G21   30.06S
RUTHERFORDTON  FAIR      60  29  30 N16G23    30.06S
MOUNT AIRY     FAIR      54  26  34 N10G18    30.10R
BOONE          FAIR      45  24  43 NW26G33   30.08R
$$

NCZ021-022-025-041-071-084-088-192200-
CENTRAL NORTH CAROLINA

CITY           SKY/WX    TMP DP  RH WIND       PRES   REMARKS
CHARLOTTE      FAIR      65  34  31 N16G28    30.01R
GREENSBORO     FAIR      57  30  35 N14G25    30.04R
WINSTON-SALEM  FAIR      56  29  35 NW13G23   30.07R
RALEIGH-DURHAM FAIR      62  35  36 NW13G29   29.98R
FORT BRAGG     FAIR      75  38  26 NW18G28   29.89R
FAYETTEVILLE   FAIR      76  38  25 NW25G35   29.87R
BURLINGTON     FAIR      61  30  31 NW22G30   30.01R
LAURINBURG     FAIR      75  39  27 N17G30    29.90R
$$

NCZ011-015-027-028-043-044-047-080-103-192200-
NORTHEASTERN NORTH CAROLINA

CITY           SKY/WX    TMP DP  RH WIND       PRES   REMARKS
ROCKY MT-WILSO FAIR      68  38  33 NW24G32   29.91R
GREENVILLE     FAIR      72  41  33 N17G29    29.90R
WASHINGTON     CLOUDY    75  43  32 N18G28    29.83R
ELIZABETH CITY CLOUDY    70  44  39 NW18G30   29.84R
MANTEO         FAIR      62  47  57 E9        29.82R
CAPE HATTERAS  PTSUNNY   72  63  73 W8        29.80R
$$

NCZ078-087-090-091-093-098-101-192200-
SOUTHEASTERN NORTH CAROLINA

CITY           SKY/WX    TMP DP  RH WIND       PRES   REMARKS
LUMBERTON      FAIR      78  45  30 NW18G28   29.85R
GOLDSBORO      FAIR      76  41  28 NW20G30   29.84R
KINSTON        PTSUNNY   77  39  25 NW17G29   29.85R
KENANSVILLE    PTSUNNY   77  45  31 NW21G31   29.85R
NEW BERN       PTSUNNY   77  56  48 NW9       29.81R
CHERRY POINT   NOT AVBL
BEAUFORT       FAIR      68  61  78 SW23G33   29.80R
JACKSONVILLE   PTSUNNY   83  51  33 W21G28    29.79R
WILMINGTON     FAIR      84  48  28 W22G31    29.82R
$$




USA.gov is the U.S. government's official web portal to all federal, state and local government web resources and services.